Regional Weather Roundup
Issued by NWS

Home | Current Version | Previous Version | Graphics & Text | Print | Product List | Glossary On
Versions: 1 2 3 4 5 6 7 8 9 10 11 12 13 14 15 16 17 18 19 20 21 22 23 24 25 26 27 28 29 30 31 32 33 34 35 36 37 38 39 40 41 42 43 44 45 46 47 48 49 50
000
ASUS43 KMPX 101610
RWRMN
WEATHER ROUNDUP FOR MINNESOTA
NATIONAL WEATHER SERVICE TWIN CITIES/CHANHASSEN MN
1000 AM CST SAT DEC 10 2016


NOTE: "FAIR" INDICATES FEW OR NO CLOUDS BELOW 12,000 FEET WITH NO
SIGNIFICANT WEATHER AND/OR OBSTRUCTIONS TO VISIBILITY. N/A MEANS
CURRENT SKY AND/OR WEATHER CONDITIONS ARE NOT AVAILABLE.

MNZ060>063-068>070-101700-
   Twin Cities Metro

CITY           SKY/WX    TMP DP  RH WIND       PRES   REMARKS
TWIN CITIES    CLOUDY     7   0  73 CALM      30.47F
ST PAUL        CLOUDY     7  -1  70 N3        30.50S
CRYSTAL        CLOUDY     6  -2  69 CALM      30.46F
BLAINE         CLOUDY     7   1  78 CALM      30.46R
LAKEVILLE      CLOUDY     5   1  85 CALM      30.46S
EDEN PRAIRIE   CLOUDY     8   2  76 CALM      30.45F
SOUTH ST PAUL  CLOUDY     8   1  73 CALM      30.47F
LAKE ELMO      PTSUNNY    9   3  78 CALM      30.48R
$$
MNZ001>005-007-008-013>017-022>024-027-028-101700-
   Northwest Minnesota

CITY           SKY/WX    TMP DP  RH WIND       PRES   REMARKS
BEMIDJI        CLOUDY   -11 -15  82 CALM      30.40S
HALLOCK        CLOUDY    -9 -15  77 CALM      30.46F
ROSEAU         CLOUDY    -6 -11  77 W3        30.44S HAZE
WARROAD        CLOUDY    -9 -15  77 W3        30.43S
THIEF RVR FALL FLURRIES  -2  -7  79 CALM      30.44F
CROOKSTON      FLURRIES  -9 -15  77 SE6       30.47S WCI -23
FOSSTON        CLOUDY    -6 -11  77 CALM      30.42F
DETROIT LAKES  CLOUDY    -9 -13  84 CALM      30.38F FOG
MOORHEAD       MIX PCPN  -8 -13  77 E3        30.44F
PARK RAPIDS    CLOUDY   -13 -18  78 NW3       30.38F
$$
MNZ006-009>011-018-025>026-101700-
   North Central Minnesota

CITY           SKY/WX    TMP DP  RH WIND       PRES   REMARKS
BAUDETTE       MOSUNNY   -8 -12  83 CALM      30.40S
FLAG ISLAND    PTSUNNY   -6  -9  84 NW5       30.41S WCI -17
INTL FALLS     SUNNY     -5 -10  79 CALM      30.41S
WASKISH        SUNNY     -2  -6  84 CALM      30.41S
BIG FORK       SUNNY     -2  -8  78 CALM      30.39F
LONGVILLE      CLOUDY     0  -8  71 CALM      30.40S
GRAND RAPIDS   LGT SNOW   1  -6  72 NW3       30.42S
CRANE LAKE     CLOUDY    -6  -9  84 CALM      30.44S FOG
ORR            SUNNY     -6 -11  77 CALM      30.37R
COOK           SUNNY     -4  -8  84 W5        30.40S WCI -15
$$
MNZ012-019>021-037-101700-
   Northeast Minnesota

CITY           SKY/WX    TMP DP  RH WIND       PRES   REMARKS
DULUTH         CLOUDY     1  -6  72 NW6       30.39F WCI -10
ELY            SUNNY     -2  -8  78 W6        30.38S WCI -14
HIBBING        SUNNY     -2  -7  79 CALM      30.40F
EVELETH        SUNNY      0  -8  71 W7        30.40S WCI -13
DULUTH HARBOR  CLOUDY     9  -2  61 CALM      30.49S
TWO HARBORS    SUNNY      5  -2  72 NW5       30.41S WCI  -4
SILVER BAY     SUNNY      3  -6  66 W5        30.40S WCI  -6
GRAND MARAIS     N/A      9  -2  61 VRB7G20   30.43F WCI  -2
G MARAIS ARPRT PTSUNNY    1  -8  66 NW5       30.30S WCI  -8
$$
MNZ029>031-032-039>041-046>048-054>057-064-101700-
   West Central Minnesota

CITY           SKY/WX    TMP DP  RH WIND       PRES   REMARKS
FERGUS FALLS   CLOUDY    -6 -11  77 SE3       30.48R
WHEATON        CLOUDY    -2  -8  78 CALM      30.45S
MORRIS         CLOUDY    -4  -9  77 CALM      30.41S
ALEXANDRIA     CLOUDY    -2  -6  83 CALM      30.39S
ELBOW LAKE     FAIR      -7 -11  83 CALM      30.42S
WADENA         CLOUDY    -6  -9  84 CALM      30.39S
GLENWOOD       CLOUDY    -2  -6  84 CALM      30.40S
APPLETON       MOSUNNY    0  -8  71 CALM      30.43S
BENSON         CLOUDY    -2  -8  78 CALM      30.42S
ORTONVILLE     CLOUDY    -2  -9  71 CALM      30.41F
MADISON        FLURRIES   3  -2  78 E3        30.42F
WILLMAR        FAIR       3   0  85 CALM      30.42F
$$
MNZ033>034-036-042>043-049>051-058-059-101700-
   Central Minnesota

CITY           SKY/WX    TMP DP  RH WIND       PRES   REMARKS
ST CLOUD       CLOUDY     2  -2  83 CALM      30.44F
PAYNESVILLE    MOSUNNY    1  -2  85 CALM      30.42F
AITKIN         CLOUDY     7  -4  61 N5        30.39F WCI  -2
PINE RIVER     CLOUDY     0  -6  78 CALM      30.41F
BRAINERD       CLOUDY     0  -4  83 SW5       30.41F WCI -10
LONG PRAIRIE   PTSUNNY    0  -4  85 CALM      30.40S
LITTLE FALLS   CLOUDY     1  -6  71 CALM      30.43S
LITCHFIELD     CLOUDY     3   0  85 CALM      30.42F
BUFFALO        CLOUDY     4  -1  80 CALM      30.46F
MAPLE LAKE     PTSUNNY    5   1  83 CALM      30.45F
HUTCHINSON     CLOUDY     6   1  81 E3        30.43F
$$
MNZ037-044-045-052-053-101700-
   East Central Minnesota

CITY           SKY/WX    TMP DP  RH WIND       PRES   REMARKS
PRINCETON      CLOUDY     5   0  78 CALM      30.43F
MORA           CLOUDY     5   0  78 CALM      30.44F
CAMBRIDGE      MOSUNNY    7  -2  66 CALM      30.43F
RUSH CITY      CLOUDY     5   0  78 CALM      30.45F
MOOSE LAKE     CLOUDY     5  -2  72 CALM      30.42F
HINCKLEY       PTSUNNY    7   3  85 CALM      30.43F
CLOQUET        CLOUDY     1  -6  71 W5        30.41S WCI  -8
MCGREGOR       CLOUDY     5  -2  72 CALM      30.42F
$$
MNZ071>073-080-081-089-090-097-098-101700-
   Southwest Minnesota

CITY           SKY/WX    TMP DP  RH WIND       PRES   REMARKS
MONTEVIDEO     CLOUDY     1  -2  85 CALM      30.44F
GRANITE FALLS  CLOUDY     4  -1  78 E3        30.44F
CANBY          LGT SNOW   3  -2  81 CALM      30.41S
MARSHALL       LGT SNOW   1  -2  85 SE6       30.42R FOG     WCI -10
REDWOOD FALLS  CLOUDY     4  -2  76 E5        30.43F WCI  -5
OLIVIA         CLOUDY     5   0  78 CALM      30.42F
PIPESTONE      LGT SNOW   9   3  78 SE13      30.30F WCI  -7
WINDOM         LGT SNOW   7   1  78 MISG      30.37F
WORTHINGTON    LGT SNOW   8   4  83 E14       30.34F FOG     WCI  -8
JACKSON        LGT SNOW   9   3  78 E9        30.37F WCI  -5
TRACY          LGT SNOW   6   2  84 E9        30.38F WCI  -8
SLAYTON        LGT SNOW   5   2  86 E12       30.34F WCI -10
$$
MNZ065>067-074>077-082>085-091>093-101700-
   South Central Minnesota

CITY           SKY/WX    TMP DP  RH WIND       PRES   REMARKS
MANKATO        CLOUDY     5   1  83 E3        30.45F
NEW ULM        CLOUDY     3  -2  78 E3        30.43F
ST JAMES       LGT SNOW   7   1  78 E3        30.44F
FAIRMONT       FLURRIES   7   3  84 E8        30.42F WCI  -6
GLENCOE        CLOUDY     7   4  86 SE3       30.43F
FARIBAULT      CLOUDY     7   1  78 CALM      30.46S
OWATONNA       CLOUDY     7   1  78 CALM      30.44F
WASECA         CLOUDY     7   1  78 CALM      30.45F
ALBERT LEA     LGT SNOW  10   7  85 E3        30.42F
$$
MNZ078>079-086>088-094>096-101700-
   Southeast Minnesota

CITY           SKY/WX    TMP DP  RH WIND       PRES   REMARKS
ROCHESTER      CLOUDY     5   2  87 CALM      30.43F
RED WING       MOSUNNY   10   1  67 CALM      30.48R
STANTON        CLOUDY     8   2  78 CALM      30.46S
DODGE CENTER   CLOUDY     5   0  78 CALM      30.42F
WINONA         CLOUDY    12   5  73 CALM      30.50S
AUSTIN         CLOUDY     9   1  72 E3        30.43F
PRESTON        CLOUDY     6   1  77 CALM      30.45S
$$
ABBREVIATIONS USED IN REMARKS
   TC - TEMPERATURES IN CELSIUS
  WCI - WIND CHILL INDEX
   HX - HEAT INDEX
  VSB - VISIBILITY
$$



USA.gov is the U.S. government's official web portal to all federal, state and local government web resources and services.